Other Surface Observations
Issued by NWS Jacksonville, FL

Home | Current Version | Previous Version | Text Only | Print | Product List | Glossary On
Versions: 1 2 3 4 5 6 7 8 9 10 11 12 13 14 15 16 17 18 19 20 21 22 23 24 25 26 27 28 29 30 31 32 33 34 35 36 37 38 39 40 41 42 43 44 45 46 47 48 49 50
000
SXUS52 KJAX 021213
OSOJAX
OTHER SURFACE OBSERVATIONS
NATIONAL WEATHER SERVICE JACKSONVILLE FL
700 AM EST MON MAR 02 2015

FLZ020>025-030>033-035>038-040-021300-
...FLORIDA...

CITY           SKY/WX    TMP DP  RH WIND       PRES   REMARKS
CECIL FIELD    FOG       55  55 100 VRB5      30.31F VSB 1/4
HERLONG FIELD  NOT AVBL
FERNANDINA BCH NOT AVBL
LAKE CITY      FOG       55  55 100 S3        30.30S VSB<1/4
JUNIPER SPGS   NOT AVBL
BUNNELL        NOT AVBL
KEYSTONE HGTS  CLOUDY    55  55 100 CALM      30.31S VSB<1/4
$$

GAZ132>136-149>154-162>166-021300-
...GEORGIA...

CITY           SKY/WX    TMP DP  RH WIND       PRES   REMARKS
JESUP          FOG       54  52  94 SE3       30.30S VSB 1/2
HOMERVILLE     FOG       54  54 100 N5        30.32R VSB 1/4
SWAINSBORO     FOG       46  46 100 CALM      30.30S VSB 1/2
CORDELE        NOT AVBL
EASTMAN        FOG       47  47 100 CALM      30.33S VSB 3/4
$$

PLEASE NOTE:  THESE OBSERVATIONS ARE NOT QUALITY CONTROLLED AND MAY
NOT BE AVAILABLE AT ALL TIMES.
$$


USA.gov is the U.S. government's official web portal to all federal, state and local government web resources and services.